Tracking 18840 objects as of 20-November-2017
HD Live streaming from Space Station
objects crossing your sky now

METEOR 1-21

Track METEOR 1-21 now!
10-day predictions
METEOR 1-21 is classified as:


NORAD ID: 7714
Int'l Code: 1975-023A
Perigee: 850.4 km
Apogee: 896.6 km
Inclination: 81.2 °
Period: 102.3 minutes
Semi major axis: 7244 km
RCS: 4.3419 m2 (large)
Launch date: April 1, 1975
Source: Commonwealth of Independent States (former USSR) (CIS)
Launch site: PLESETSK MISSILE AND SPACE COMPLEX (PKMTR)
aabbcc
Your satellite tracking list
Your tracking list is empty




NASA's NSSDC Master Catalog

Two Line Element Set (TLE):
1  7714U 75023A   17323.56816369 -.00000033 +00000-0 -26500-4 0  9991
2  7714 081.2134 040.3704 0031897 178.6236 181.5027 14.07971278506808
Source of the keplerian elements: AFSPC